Regional Weather Roundup
Issued by NWS Charleston, SC

Current Version | Previous Version | Graphics & Text | Print | Product List | Glossary On
Versions: 1 2 3 4 5 6 7 8 9 10 11 12 13 14 15 16 17 18 19 20 21 22 23 24 25 26 27 28 29 30 31 32 33 34 35 36 37 38 39 40 41 42 43 44 45 46 47 48 49 50
000 ASUS42 KCHS 280712 RWRCHS REGIONAL WEATHER ROUNDUP NATIONAL WEATHER SERVICE CHARLESTON SC 300 AM EDT TUE JUL 28 2015 NOTE: "FAIR" INDICATES FEW OR NO CLOUDS BELOW 12,000 FEET WITH NO SIGNIFICANT WEATHER AND/OR OBSTRUCTIONS TO VISIBILITY. NOT ALL STATIONS ARE QUALITY CONTROLLED BY THE NATIONAL WEATHER SERVICE. USE DATA WITH CAUTION...ESPECIALLY DEWPOINT OBSERVATIONS. SCZ027-030-031-034>040-042>050-280800- ...SOUTHEAST SOUTH CAROLINA... CITY SKY/WX TMP DP RH WIND PRES REMARKS N CHARLESTON CLEAR 76 74 93 N3 29.95F WATERFRONT PRK N/A 81 78 91 VRB3 29.92F MOUNT PLEASANT LGT RAIN 75 75 100 N3 29.95F JOHNS ISLAND FAIR 79 77 94 CALM 29.95F PINOPOLIS NOT AVBL MONCKS CORNER FAIR 77 73 88 CALM 29.96F SUMMERVILLE FAIR 73 73 100 CALM 29.97F BEAUFORT MCAS CLEAR 78 76 93 N3 29.95F BEAUFORT ARPT FAIR 79 79 100 CALM 29.95F HILTON HEAD IS MOCLDY 79 79 100 CALM 29.96S WALTERBORO SUNNY 77 73 88 CALM 29.97F ALLENDALE FAIR 75 73 94 CALM 29.96F ...SOUTHERN MIDLANDS AND PEE DEE... CITY SKY/WX TMP DP RH WIND PRES REMARKS GEORGETOWN NOT AVBL KINGSTREE NOT AVBL ORANGEBURG PTCLDY 78 74 87 N3 29.98F BARNWELL FAIR 75 75 100 CALM 29.98F AIKEN FAIR 73 68 83 E3 30.02F MANNING FAIR 73 73 100 CALM 29.98S COLUMBIA CLOUDY 81 74 79 SE3 29.97F SUMTER DRIZZLE 79 73 83 NE5 29.96F FLORENCE MOCLDY 77 74 90 NE6 29.99F MYRTLE BEACH MOCLDY 79 72 78 N7 N/A N MYRTLE BEACH PTCLDY 75 73 93 N3 29.98S $$ GAZ063-065-086>088-099>101-113>116-118-119-134>141-150-280800- ...SOUTHEAST GEORGIA... CITY SKY/WX TMP DP RH WIND PRES REMARKS SAVANNAH ARPT CLEAR 78 75 90 CALM 29.96S HUNTER AAF CLEAR 76 76 100 CALM 29.93S FORT STEWART PTCLDY 74 73 93 CALM 29.93F STATESBORO CLEAR 74 32 21 CALM 29.96F FOG SYLVANIA SUNNY 76 75 98 CALM 29.98F CLAXTON FAIR 73 73 100 CALM 29.96F ...CSRA...CENTRAL AND FAR SOUTHEAST GEORGIA... CITY SKY/WX TMP DP RH WIND PRES REMARKS THOMSON PTCLDY 78 74 87 CALM 30.01F AUGUSTA-BUSH CLEAR 75 72 90 CALM 29.97F AUGUSTA-DANIEL CLEAR 80 72 76 E5 29.99F SWAINSBORO FAIR N/A N/A N/A CALM 29.98F VIDALIA FOG 77 73 88 CALM 29.97S VSB 1/4 EASTMAN FAIR 73 73 100 CALM 29.99F FOG HAZLEHURST FAIR 77 77 100 CALM 29.96S FOG ALMA MOCLDY 76 75 97 CALM 29.96S FOG WAYCROSS PTCLDY 78 78 100 CALM 29.95S FOG JESUP FAIR 79 77 94 CALM 29.96S BAXLEY FAIR 77 75 94 CALM 29.96S BRUNSWICK N/A 73 73 100 CALM 29.95F VSB 1/2 SAINT SIMONS PTCLDY 80 76 87 CALM 29.93F $$ SCZ027-028-034-036>038-045-046-048>050-GAZ119-141-280800- ...LAKE AND SUPPLEMENTAL COASTAL OBSERVATIONS... STATION/POSITION TIME TEMP WIND PRES WAVE SWELL AIR SEA DIR/SP/G HT/PER HT/PER/DIR (UTC) (F) (DEG/KT/KT) (MB) (FT/S) (FT/S/D) UPR LAKE MARION NOT AVBL WINYAH BAY NOT AVBL LAKE MURRAY 0600 83 130/ 6/ 8 1014.9F ACE BASIN NERRS NOT AVBL FORT PULASKI 0600 81 85 110/ 2/ 2 1014.7F SAPELO ISLAND 0600 77 CALM 1014.0S $$ ANZ835-935-AMZ111-154-330-350-352-354-370-450-454-472-280800- ...C-MAN AND BUOY OBSERVATIONS... STATION/POSITION TIME TEMP WIND PRES WAVE SWELL AIR SEA DIR/SP/G HT/PER HT/PER/DIR (UTC) (F) (DEG/KT/KT) (MB) (FT/S) (FT/S/D) BUOY 41004 0650 82 84 60/ 6/ 6 1013.4F 3/ 7 3/ 7 BUOY 41008 0650 81 82 190/ 2/ 4 1013.9F 2/11 2/ 90/11 FOLLY BEACH CMAN 0600 81 60/ 6/ 7 1014.6S CAPERS NEARSHORE 0608 81 50/ 6/ 10 1014.2F FRIPP NEARSHORE 0600 82 70/ 4/ 6 1013.9F STATION/POSITION TIME TEMP WIND PRES WAVE SWELL AIR SEA DIR/SP/G HT/PER HT/PER/DIR (UTC) (F) (DEG/KT/KT) (MB) (FT/S) (FT/S/D) 5E ST. MARYS GA 0621 81 N/A 2/11 FRYING PAN BUOY 0650 83 84 90/ 10/ 12 1014.6F 4/ 7 3/190/ 7 BUOY 41025 NOT AVBL CAPE LOOKOUT NC 0600 80 100/ 8/ 10 1015.6R BUOY 41002 0650 80 82 260/ 16/ 19 1014.3F 5/ 6 2/130/11 BUOY 41010 0620 84 84 200/ 14/ 16 1015.3S ST AUGUSTINE FL 0700 78 80 210/ 1/ 2 1014.4F $$

USA.gov is the U.S. government's official web portal to all federal, state and local government web resources and services.